Flag for US Virgin Islands Weather past 2 weeks in Christiansted, US Virgin Islands

Now
80 °F

Passing clouds.


Feels Like: 84 °F
Forecast: 78 / 80 °F
Wind: 6 mph from Southeast

Location: Christiansted / Henry E. Rohlsen Airport - Saint Croix

Current Time: Apr 25, 2015 at 8:24:24 PM

Latest Report: Apr 25, 2015 at 7:53 PM


Visibility: 10 mi

Pressure: 29.96 "Hg

Humidity: 79%

Dew point: 73 °F

Location of ChristianstedLocation

Historic Weather in Christiansted — Graph

°F

Christiansted temperature yesterday

Maximum temperature yesterday: 86 °F (at 10:53 AM)
Minimum temperature yesterday: 73 °F (at 4:53 AM)
Average temperature yesterday: 79 °F

Past Weeks' High & Low Weather Summary

 TemperatureHumidityPressure
High87 °F (Apr 25, 12:53 PM)94% (Apr 18, 12:43 AM)30.09 "Hg (Apr 18, 12:43 AM)
Low72 °F (Apr 25, 12:53 AM)50% (Apr 21, 1:53 PM)29.93 "Hg (Apr 25, 4:53 PM)
Average80 °F75%30.00 "Hg
* Reported Apr 10 8:53 PM — Apr 25 6:53 PM, Christiansted, Weather by CustomWeather, © 2015

Note: Actual official high and low records may vary slightly from our data, if they occured in-between our weather recording intervals... More about our weather records

Advertising

Christiansted weather history for previous 24 hours

 ConditionsComfort  
Time TempWeatherWind HumidityBarometerVisibility
6:53 PM
Sat, Apr 25
81 °FPassing clouds.6 mph77%29.94 "Hg10 mi
5:53 PM82 °FPassing clouds.8 mph74%29.93 "Hg10 mi
4:53 PM84 °FScattered clouds.8 mph70%29.93 "Hg10 mi
3:53 PM84 °FLight rain. Scattered clouds.8 mph72%29.93 "Hg10 mi
2:53 PM86 °FScattered clouds.8 mph65%29.94 "Hg10 mi
1:53 PM86 °FScattered clouds.10 mph67%29.96 "Hg10 mi
12:53 PM87 °FScattered clouds.10 mph65%29.98 "Hg10 mi
11:53 AM86 °FScattered clouds.13 mph67%30.00 "Hg10 mi
10:53 AM86 °FPassing clouds.9 mph67%30.01 "Hg10 mi
9:53 AM85 °FScattered clouds.10 mph68%30.01 "Hg10 mi
8:53 AM83 °FSunny.9 mph72%30.02 "Hg10 mi
7:53 AM81 °FBroken clouds.9 mph77%30.00 "Hg10 mi
6:53 AM79 °FPassing clouds.3 mph82%29.99 "Hg10 mi
6:09 AM74 °FBroken clouds.5 mph91%29.98 "Hg10 mi
5:53 AM74 °FPartly cloudy.5 mph91%29.97 "Hg10 mi
5:29 AM73 °FPartly cloudy.5 mph94%29.97 "Hg10 mi
4:53 AM73 °FPassing clouds.5 mph94%29.96 "Hg10 mi
3:53 AM73 °FClear.5 mph94%29.96 "Hg10 mi
2:53 AM73 °FPassing clouds.6 mph90%29.96 "Hg10 mi
1:53 AM72 °FPassing clouds.6 mph93%29.96 "Hg10 mi
12:53 AM72 °FPassing clouds.3 mph93%29.97 "Hg10 mi
11:53 PM
Fri, Apr 24
73 °FMild.3 mph90%29.98 "Hg10 mi
10:53 PM74 °FClear.No wind88%29.99 "Hg10 mi
9:53 PM75 °FClear.3 mph85%29.99 "Hg10 mi
8:53 PM77 °FClear.No wind79%29.98 "Hg10 mi
Weather by CustomWeather, © 2015

See weather overviewHow to use our weather pages